Wind_Speed
28 32 29 27 24 22 21 22 22 21 20 19 18 18 19 20 22 23 22 20 20 21 21 20 20 18 16 14 13 11 10 9 9 10 9 10 11 11 11 11 11 10 8 7 7 7 7 8 9 8 8 9 10 12 13 13 13 12 11 10 9 9 11 12 10 8 8 8 7 6 7 8 6 4 4 4 3 3 3 4 5 5 6 7 8
29 33 31 28 26 24 24 23 23 23 22 21 18 17 17 18 21 23 22 21 21 22 22 21 20 19 18 16 15 13 11 9 8 8 7 9 10 10 11 11 10 8 7 6 6 7 7 7 8 8 7 8 10 11 12 13 13 11 10 9 8 8 9 10 8 7 8 8 6 5 5 6 5 4 3 3 2 3 4 4 6 5 5 6 8
33 35 33 31 29 27 26 25 25 24 24 22 19 18 18 17 19 21 21 21 21 22 23 21 19 19 19 18 16 15 13 11 9 8 7 9 10 11 11 11 10 9 7 7 6 7 7 7 7 8 8 8 9 11 12 13 12 11 10 9 8 8 7 8 8 7 7 7 5 3 4 4 4 4 4 3 3 4 5 3 6 5 4 6 6
36 36 34 33 31 29 28 27 27 25 25 24 21 20 19 18 17 19 21 19 20 23 23 21 19 18 20 19 16 15 15 13 11 11 9 10 11 11 12 11 11 10 9 8 7 7 7 7 7 7 8 9 10 10 11 11 11 10 9 8 7 7 7 8 8 7 7 5 3 2 3 2 2 3 4 3 2 4 6 4 3 3 4 6 6
38 36 35 35 32 30 28 28 28 26 26 26 23 21 21 18 16 19 21 20 21 23 23 22 20 18 19 19 17 16 16 15 14 14 12 11 11 11 12 12 11 11 10 9 8 7 7 7 7 7 7 8 10 10 9 10 10 10 8 7 7 7 7 8 7 7 6 5 3 1 1 1 1 3 5 4 3 5 6 4 2 0 3 6 6
37 37 36 35 32 31 30 29 30 28 27 27 24 22 22 19 18 20 22 22 22 22 22 22 20 18 19 19 18 17 17 16 15 14 12 11 11 11 12 12 12 11 11 9 8 8 7 7 8 8 8 8 9 9 9 10 9 9 8 7 7 7 7 7 7 7 6 6 4 2 1 2 2 2 3 3 4 6 5 4 4 2 4 5 5
37 38 37 36 34 33 31 30 31 30 28 26 24 24 23 21 20 22 22 22 22 21 21 21 20 19 18 18 17 16 16 16 14 11 11 11 11 11 12 11 11 11 10 9 8 8 7 7 8 8 9 8 8 9 9 10 9 8 8 7 7 7 6 6 7 8 7 7 5 3 3 2 1 1 2 2 3 5 5 4 4 4 4 5 5
38 39 38 37 36 34 32 31 32 30 28 27 26 25 23 22 23 23 23 22 22 21 21 20 20 19 18 18 17 16 15 15 14 11 11 12 11 11 12 11 11 10 9 8 8 8 6 7 7 8 10 9 8 9 9 9 9 8 8 7 8 7 6 5 5 7 7 6 4 3 2 1 1 1 0 2 2 3 4 4 4 4 4 5 5
38 40 39 37 36 34 32 31 31 30 28 28 27 25 23 23 23 23 23 23 21 21 21 20 19 18 19 19 18 17 16 15 14 12 11 11 11 11 11 11 10 10 9 8 8 8 7 7 7 8 9 9 9 8 8 8 8 7 7 8 8 9 7 5 5 5 5 6 4 2 1 1 1 2 2 3 4 5 5 6 6 6 6 5 5
37 38 39 38 36 34 31 30 31 29 28 28 27 25 23 23 23 23 23 23 22 21 20 20 19 18 19 20 19 19 18 17 14 13 12 12 12 11 11 11 10 9 9 8 8 8 8 8 8 9 9 9 9 8 7 7 7 7 7 7 8 8 8 7 6 5 5 6 6 4 3 2 3 5 5 4 5 6 6 6 6 7 7 5 4
37 37 39 39 36 34 31 31 30 28 27 28 28 26 24 23 23 23 23 22 22 21 20 20 19 19 19 20 20 19 19 18 15 15 14 13 13 10 11 12 10 9 10 9 9 9 9 9 9 10 9 9 10 9 8 7 7 8 7 7 7 7 8 8 7 6 6 7 7 5 5 5 5 5 6 6 7 8 8 8 8 8 8 7 6
37 36 39 40 38 36 34 32 31 28 27 27 28 27 26 24 23 23 24 23 22 22 20 20 20 19 19 18 18 17 17 17 16 15 15 14 13 11 11 12 10 10 10 9 10 10 10 10 10 10 9 9 9 9 9 7 7 8 7 6 6 7 8 8 7 7 6 7 7 5 5 6 6 6 6 7 9 10 10 10 8 8 9 9 9
36 36 40 41 40 38 37 34 32 29 27 28 28 27 27 26 24 23 25 24 22 22 21 20 20 21 20 18 18 17 16 16 16 16 15 13 13 12 12 12 11 11 11 10 10 10 10 10 9 9 9 9 9 9 8 6 7 8 6 7 7 6 7 7 7 8 8 7 7 6 5 5 6 6 7 8 10 10 10 10 9 9 9 10 12
34 35 39 42 41 40 38 35 33 30 28 28 29 28 28 27 24 22 24 25 24 23 22 21 20 21 20 19 18 18 17 16 16 15 14 13 13 12 10 11 11 10 10 10 10 10 11 10 8 8 8 8 8 9 8 7 7 7 6 7 7 6 7 7 7 8 8 8 7 5 5 6 6 5 6 7 8 8 8 9 9 9 10 11 13
32 34 38 41 42 41 39 36 33 31 30 30 30 29 29 28 26 23 23 25 25 24 23 22 21 21 20 19 19 18 17 17 16 15 14 13 13 12 10 10 10 9 9 10 9 9 11 9 8 8 7 7 9 9 8 8 8 7 7 6 5 6 7 7 8 8 8 8 7 6 5 5 6 5 5 5 5 6 7 8 8 9 10 12 12
29 33 37 41 42 41 40 37 34 33 32 32 32 31 29 28 27 23 23 24 25 25 24 23 22 21 21 20 19 17 16 16 17 16 14 13 12 12 11 10 10 10 10 10 9 9 10 8 7 7 7 8 8 9 8 8 9 8 8 7 6 7 7 7 9 9 9 9 7 6 5 4 5 5 5 6 6 6 6 7 7 9 10 12 12
29 31 36 40 42 42 40 37 35 36 35 34 34 32 29 28 27 24 22 24 25 24 24 24 23 22 21 21 19 18 16 16 16 15 14 13 13 12 11 11 11 10 10 10 9 8 8 8 8 8 8 8 8 8 8 8 8 8 8 8 8 9 8 7 8 9 9 9 8 6 6 5 6 6 6 6 6 6 6 6 7 8 9 10 12
30 30 34 39 41 43 41 38 36 36 37 36 35 32 28 27 26 24 22 24 24 24 24 24 23 22 21 20 20 19 18 16 15 15 14 14 14 13 12 12 10 10 10 10 9 8 8 8 8 8 8 8 8 8 8 8 8 8 9 9 8 9 9 8 7 8 8 9 9 7 6 6 7 7 7 6 5 6 6 6 7 8 8 10 11
31 30 33 38 40 42 41 38 36 36 37 37 35 32 30 28 26 22 22 24 24 24 24 24 22 21 20 20 19 19 18 17 16 15 16 16 15 14 13 12 10 10 10 9 8 8 8 8 8 8 8 9 8 8 8 8 8 8 8 8 8 9 9 7 6 6 7 9 10 9 7 7 8 8 8 8 7 6 6 6 8 8 9 10 10
32 31 32 36 39 41 42 39 36 35 35 37 36 33 31 29 26 21 21 23 24 24 24 24 22 21 21 20 19 19 19 19 18 17 17 16 14 14 13 11 11 11 9 8 7 8 9 9 8 7 8 8 7 7 8 7 8 8 8 8 8 9 9 8 6 6 7 9 11 11 8 7 10 11 11 12 11 9 7 7 8 9 10 9 9
33 31 31 35 38 40 42 40 37 35 35 37 37 35 32 29 26 23 22 23 25 25 24 24 23 22 21 20 19 19 19 19 19 18 18 16 14 13 12 11 11 10 8 7 7 8 8 8 8 7 7 7 6 6 7 7 7 8 8 8 8 8 8 7 7 7 7 9 12 12 10 9 11 13 13 13 13 11 10 9 8 9 10 9 9
33 30 30 33 36 40 42 42 40 38 36 38 38 36 33 31 28 25 23 23 25 25 25 24 23 22 22 21 20 19 19 19 19 19 18 16 14 13 12 12 12 9 7 6 6 7 7 7 7 7 7 7 5 5 6 7 7 7 7 7 7 7 7 7 7 6 6 7 10 11 11 10 11 12 11 12 12 12 12 12 10 10 10 9 8
28 30 31 33 35 37 40 43 43 40 38 38 38 36 33 31 29 26 24 23 24 25 25 24 24 23 22 22 21 20 20 20 19 18 17 14 13 13 13 12 12 10 8 7 7 7 6 6 7 6 6 6 5 5 6 7 7 7 8 8 7 8 7 7 7 6 6 7 8 9 9 9 9 9 9 9 9 10 11 12 10 9 9 9 8
26 27 28 30 32 34 37 41 43 42 41 40 37 35 33 31 30 28 25 23 23 25 26 25 24 24 23 22 21 20 20 20 20 18 16 14 12 13 14 13 12 11 10 9 8 8 7 7 7 6 6 6 6 6 7 8 8 8 8 8 9 9 8 8 8 7 7 7 7 7 7 7 7 8 9 9 9 9 10 11 10 8 9 8 7
27 26 22 20 23 28 34 39 41 41 41 40 38 36 35 33 31 29 27 24 23 26 27 26 24 23 22 22 20 19 19 20 20 19 17 14 13 13 14 14 13 12 12 11 10 10 9 9 8 8 8 8 8 9 10 10 10 9 8 8 9 9 9 8 8 8 8 8 8 8 8 9 9 10 11 11 10 9 9 9 8 7 8 8 7
24 27 27 21 19 22 26 33 39 40 38 37 37 37 36 34 32 30 27 24 23 25 27 25 22 20 20 20 19 18 17 18 19 20 18 16 14 14 13 13 14 13 13 13 13 12 12 11 9 9 10 9 10 11 11 11 11 11 10 10 9 9 9 9 10 10 11 10 10 10 10 10 10 11 12 11 10 9 8 7 6 5 6 8 9
24 27 32 30 27 23 20 21 27 32 34 35 36 36 34 32 31 29 27 24 23 25 26 24 21 19 18 17 18 17 16 16 17 19 20 17 14 14 14 15 16 15 14 14 14 14 14 12 11 11 11 11 11 11 11 12 12 12 12 12 11 10 10 11 12 12 12 11 11 12 12 11 11 11 12 12 11 10 8 6 6 6 7 9 10
26 26 29 32 33 30 26 23 21 21 24 27 29 30 30 32 33 31 28 27 28 27 27 25 23 22 20 18 18 18 17 16 16 17 19 18 16 17 18 18 20 20 19 17 15 15 15 15 14 14 14 13 13 12 12 12 13 13 13 13 13 12 12 14 13 11 11 12 12 12 13 12 11 11 11 11 11 10 9 8 9 8 9 10 11
25 25 25 28 32 34 34 33 30 25 22 21 21 19 18 22 28 26 22 24 26 26 25 27 28 27 23 21 21 21 19 18 18 18 19 20 21 21 21 20 20 19 20 21 20 18 18 17 17 16 16 16 16 15 13 12 12 13 14 14 13 12 13 15 14 12 11 11 10 11 11 11 10 10 10 10 10 10 10 11 11 11 11 13 14
22 23 24 26 29 32 33 33 33 32 29 26 24 20 15 17 22 22 18 17 20 21 21 25 28 28 25 23 23 23 21 20 20 19 20 22 24 24 23 23 21 18 17 19 21 21 20 19 18 17 17 18 19 18 15 13 13 13 14 14 14 12 12 14 15 14 12 11 10 11 11 10 10 9 10 10 10 10 11 12 13 13 13 15 16
19 20 23 25 26 28 29 30 29 30 30 28 28 27 24 20 21 23 21 19 20 19 18 20 24 26 26 25 23 23 22 21 21 20 19 21 24 25 26 26 25 23 19 17 18 20 22 21 20 20 19 19 20 19 18 16 15 15 15 15 14 13 12 13 16 15 12 12 12 12 11 10 10 10 11 11 11 12 14 15 16 15 15 16 16
18 19 20 23 25 25 25 25 26 26 26 26 26 27 26 24 24 24 23 21 22 22 21 21 22 24 25 25 23 23 24 23 22 22 21 22 23 24 25 26 26 27 25 22 19 19 20 20 20 20 20 20 20 20 18 17 16 15 15 15 16 14 14 15 16 15 12 13 13 12 11 10 10 11 11 11 12 13 14 15 16 17 16 16 14
18 19 20 21 22 24 24 24 24 24 24 25 26 26 25 24 24 24 22 20 20 21 22 24 26 25 24 23 23 24 25 25 25 24 24 24 24 25 25 25 25 25 27 27 26 24 22 21 21 20 20 20 20 20 19 18 17 15 15 17 18 17 17 18 17 16 14 14 14 14 13 13 13 13 13 12 12 12 12 14 16 16 16 15 14
15 16 18 19 19 20 21 22 22 22 21 22 23 24 24 21 21 21 21 21 20 21 21 23 25 25 23 22 23 25 25 25 26 27 26 26 26 26 27 26 25 24 24 25 26 26 25 24 24 23 23 23 23 23 21 19 17 16 16 17 19 18 19 20 20 19 17 17 16 16 16 16 16 16 15 15 14 12 12 13 15 16 16 16 15
15 13 14 14 15 14 13 13 14 14 14 15 15 16 17 16 15 15 16 17 18 19 19 18 20 22 21 21 23 24 24 25 26 27 28 27 27 27 27 27 27 26 25 25 24 25 25 26 26 26 26 26 25 24 21 20 19 18 17 17 18 19 19 21 22 21 20 19 18 18 17 17 16 16 16 15 14 14 13 13 14 15 15 15 15
16 14 13 14 13 12 10 8 7 6 7 8 8 7 8 11 11 13 14 14 15 17 17 18 19 21 22 23 25 25 24 24 24 24 25 26 26 26 26 26 26 26 26 26 26 27 27 28 28 28 27 27 26 25 24 23 22 20 18 19 20 20 21 22 22 23 22 21 21 20 19 18 17 16 15 15 14 14 14 14 14 14 14 15 16
17 15 15 15 13 11 11 8 7 6 6 6 6 7 8 10 11 12 13 14 16 16 17 19 20 21 23 24 24 24 23 23 23 23 24 25 25 24 25 25 25 26 27 28 29 29 30 30 30 31 30 30 30 30 30 29 27 23 21 21 22 22 23 23 22 22 23 22 22 21 19 18 17 16 16 16 15 15 15 15 15 15 15 16 16
14 11 11 12 11 10 10 9 9 9 8 7 7 7 8 9 10 10 10 11 12 13 14 15 16 17 19 20 21 22 22 23 24 24 25 25 25 24 25 25 25 25 26 27 28 28 28 29 30 32 32 32 33 33 33 34 34 30 27 26 25 24 24 23 23 23 22 22 21 20 19 17 17 16 16 17 17 17 17 17 17 17 16 16 17
11 9 8 9 9 9 10 8 8 8 8 7 7 6 6 7 8 8 7 7 8 9 10 11 12 13 14 15 16 17 18 19 21 21 22 22 23 23 24 24 24 24 24 25 25 25 24 25 27 30 31 31 31 31 30 32 34 34 33 31 28 26 25 24 24 23 21 20 20 19 18 17 17 17 17 17 18 18 18 18 18 17 17 17 17
12 11 9 9 9 9 9 8 7 7 6 5 4 3 4 5 5 5 5 6 6 7 7 7 7 6 6 6 8 9 11 12 14 16 17 18 19 20 21 21 21 20 18 18 17 15 16 19 23 27 28 28 29 29 28 29 30 31 32 32 30 28 27 26 24 23 20 18 18 19 18 18 18 18 18 18 18 18 18 18 17 17 16 16 15
14 13 11 11 10 9 9 8 7 7 7 6 5 4 5 5 6 6 6 7 7 6 5 4 4 3 3 3 3 4 5 7 8 10 12 13 13 13 14 13 12 10 8 8 7 4 7 13 17 21 23 24 25 25 24 26 28 28 30 31 30 28 28 26 24 22 21 19 18 18 18 18 17 18 18 18 17 17 16 15 14 14 14 13 13
13 12 10 10 10 10 10 9 8 8 7 7 6 6 7 8 8 8 8 8 8 7 6 6 5 5 4 4 4 4 5 6 6 5 6 7 6 5 6 6 5 3 1 1 0 2 5 9 11 13 15 16 18 18 18 20 24 26 28 29 27 25 25 25 24 24 23 20 19 19 18 17 16 15 15 15 15 14 14 14 14 15 14 13 12
14 13 11 10 10 11 11 10 10 9 8 7 6 7 8 9 9 10 9 9 8 8 7 7 6 6 6 6 6 4 4 5 4 3 3 2 1 1 3 5 7 7 6 6 5 4 3 4 4 5 5 6 7 8 9 11 15 18 19 20 20 20 20 22 23 23 20 17 17 17 16 14 12 10 10 10 10 11 12 13 15 16 15 14 13
16 14 12 11 11 10 9 9 8 8 7 7 6 7 9 10 11 11 10 10 10 10 9 9 9 9 9 9 8 7 5 4 4 3 2 1 2 3 4 6 8 9 9 8 6 4 3 5 6 5 4 2 1 2 3 5 7 8 8 8 10 11 12 13 15 15 14 13 14 13 11 10 8 7 7 8 9 10 11 12 14 15 15 14 13
14 13 11 9 9 8 8 8 8 7 8 7 6 6 8 9 10 10 10 10 11 11 11 11 11 11 11 11 11 10 8 6 5 5 4 3 3 4 4 5 6 7 7 7 5 4 3 4 5 6 6 5 3 3 3 5 5 4 3 4 5 6 8 8 9 9 10 11 10 9 8 7 7 6 7 8 8 9 9 10 11 12 11 10 8
13 11 8 6 6 7 8 9 9 9 8 8 7 6 7 8 10 10 11 11 11 11 11 12 12 12 12 12 11 10 8 6 6 5 5 4 4 4 4 4 4 4 4 4 5 5 4 4 5 5 5 6 4 3 4 5 4 3 3 3 3 4 6 8 8 8 8 8 8 7 7 6 7 8 8 7 6 6 7 7 8 8 8 8 8
11 9 7 6 6 8 9 9 9 8 8 7 7 6 6 8 10 11 12 13 12 11 11 13 14 13 11 10 9 8 7 6 4 3 3 3 3 4 4 4 4 4 3 3 4 5 4 3 3 2 2 3 2 1 4 6 5 3 3 2 2 2 4 6 7 8 8 8 7 7 6 5 6 8 7 6 7 8 8 8 8 9 10 9 9
8 7 7 7 6 7 8 8 7 7 6 6 6 6 6 7 8 10 11 12 12 11 11 11 12 10 8 6 5 4 4 4 3 3 3 2 3 4 4 4 5 5 5 4 4 5 5 4 3 1 1 1 1 2 4 6 7 7 6 5 5 4 4 5 6 7 8 7 7 7 7 5 4 5 6 6 7 8 9 9 9 9 9 9 9
8 6 5 6 6 6 7 8 6 5 5 4 4 5 6 7 7 7 8 8 7 8 8 8 8 6 3 2 2 1 1 1 1 1 1 2 2 3 3 3 4 5 5 5 5 5 6 6 5 4 3 3 4 5 6 7 8 9 8 6 6 6 5 6 7 7 7 8 8 7 8 7 7 7 7 6 5 7 9 10 9 8 8 7 7
10 8 5 2 3 3 4 5 5 5 5 4 5 6 7 6 6 6 7 6 4 4 5 5 4 3 1 0 1 3 3 4 4 3 4 4 5 5 5 4 4 5 6 6 7 7 8 8 7 7 7 7 9 10 11 11 11 12 11 9 6 5 4 5 6 5 5 7 7 7 8 9 10 10 9 8 7 7 9 10 9 9 9 8 8
10 8 6 3 1 1 3 4 5 5 5 5 4 5 6 5 5 5 6 6 3 2 2 2 2 3 4 4 5 6 7 7 7 7 6 6 6 6 5 4 4 4 5 6 7 9 10 11 11 11 12 13 13 14 14 13 12 11 11 10 8 5 4 4 4 4 4 7 10 11 12 12 11 11 10 9 8 8 8 8 9 9 9 8 8
Wind_Direction
167 168 171 171 168 165 166 169 167 166 168 170 173 174 174 173 171 170 169 171 169 161 158 158 160 167 176 173 167 167 170 171 163 157 160 167 173 177 178 183 186 176 167 160 151 154 161 161 159 155 152 149 151 159 160 158 154 146 139 135 132 128 128 136 137 134 138 141 140 139 149 157 159 159 161 161 153 162 165 108 77 53 37 40 44
165 167 169 168 166 167 171 172 172 171 173 178 180 181 185 183 178 175 173 174 172 166 162 161 164 171 178 180 179 179 183 184 177 166 167 172 175 179 180 183 186 183 179 176 170 171 169 163 161 153 145 142 145 154 162 162 158 150 144 139 136 132 135 146 154 158 155 146 144 152 157 167 183 198 208 202 181 175 170 109 82 71 43 32 36
162 165 167 167 167 169 172 174 175 177 178 182 185 187 188 181 178 178 176 175 173 168 165 166 170 175 179 181 181 187 191 191 189 187 188 181 176 182 183 181 185 192 190 180 173 175 171 164 161 154 145 145 148 154 161 163 160 155 151 145 143 137 139 153 165 178 179 165 163 184 195 197 203 218 219 215 229 205 188 132 85 77 31 8 18
161 164 166 166 168 170 173 174 176 180 181 184 187 188 186 178 176 180 178 175 173 170 170 173 176 179 182 183 183 188 190 192 199 206 202 181 174 181 181 177 182 189 190 179 169 174 173 160 157 158 153 150 152 155 161 166 165 164 160 152 147 141 143 153 162 173 179 180 185 193 206 224 209 188 171 164 203 192 182 172 97 60 0 349 349
165 166 166 167 169 172 175 176 178 183 185 187 190 189 186 181 179 180 178 176 175 174 175 178 182 184 184 183 184 184 184 189 199 208 203 179 172 179 178 176 179 182 185 182 174 175 173 162 160 162 159 156 155 154 157 164 168 169 163 153 150 149 151 158 164 168 172 183 206 223 217 321 40 158 154 132 148 158 161 177 167 312 311 333 333
170 169 170 170 171 174 176 177 181 184 187 190 192 191 190 189 186 180 178 179 180 180 181 184 188 190 190 189 187 184 185 189 196 202 196 177 170 177 179 177 178 179 179 180 179 175 171 170 171 164 162 166 162 159 158 162 168 171 166 156 154 155 156 161 165 168 171 171 174 178 151 48 38 167 178 142 144 159 166 188 197 232 284 306 310
172 173 173 174 174 175 177 180 184 186 188 190 192 194 195 194 189 181 180 182 182 185 187 188 190 193 198 199 195 192 191 190 190 189 181 173 170 177 181 178 181 183 177 176 177 178 175 174 175 170 170 172 170 168 164 164 170 172 172 172 167 164 162 166 163 160 163 157 150 152 142 111 66 170 192 180 165 180 195 213 217 236 285 300 295
172 175 175 176 177 178 181 184 187 189 190 191 194 198 199 194 188 184 183 183 183 186 188 188 189 193 199 204 204 201 196 190 186 181 175 173 175 181 182 181 187 186 178 179 179 180 182 178 178 179 178 178 181 180 171 172 177 173 179 190 188 182 178 178 166 157 168 171 159 155 154 150 172 145 176 260 270 246 228 230 231 248 284 300 295
176 177 178 179 180 183 185 186 189 192 194 195 198 203 202 194 187 186 188 187 187 188 188 188 190 193 197 202 204 200 196 192 187 184 181 178 179 183 185 189 192 184 177 183 183 180 184 186 188 189 186 185 187 186 178 180 183 179 186 192 193 197 197 196 185 174 191 197 189 184 191 259 247 262 294 274 277 294 275 251 249 265 279 289 288
179 180 181 183 184 186 188 188 191 195 197 198 200 202 202 197 191 190 190 189 190 191 190 188 189 193 195 196 196 192 189 190 187 185 186 187 185 185 189 194 194 184 179 183 186 187 189 192 194 195 195 191 189 191 189 189 189 191 192 184 185 199 204 207 205 203 216 218 214 216 225 260 270 269 282 272 265 288 292 272 271 287 294 296 292
182 183 184 185 186 187 188 188 190 194 196 197 199 201 200 199 198 195 193 191 191 192 192 191 190 192 192 191 192 189 187 189 186 185 190 193 191 189 193 194 193 190 187 187 190 194 197 197 197 199 205 203 198 201 204 205 202 198 196 185 183 195 202 208 211 212 225 227 221 226 236 248 261 262 270 273 271 282 290 284 284 292 297 301 304
183 184 184 184 185 186 188 189 190 191 193 196 199 199 199 201 202 198 195 194 194 194 194 194 193 194 193 193 195 195 193 193 190 191 195 197 194 193 193 194 198 197 195 194 193 195 201 203 202 202 208 210 208 209 211 216 212 201 197 202 200 197 202 210 213 215 231 236 225 232 248 255 264 266 266 275 283 285 286 288 293 295 296 299 306
186 185 184 184 185 186 188 188 188 189 192 197 199 199 199 202 204 203 198 195 195 196 196 195 194 195 197 198 198 198 198 197 195 196 200 199 196 195 195 196 201 203 202 203 199 197 201 206 208 207 209 213 215 220 223 225 220 207 199 211 215 207 207 215 215 217 229 238 238 244 260 272 282 282 276 280 286 284 281 286 295 297 299 302 306
191 188 185 186 187 187 188 188 188 189 192 197 199 200 201 203 205 207 202 196 195 196 196 196 195 196 197 199 198 198 200 199 196 197 202 203 200 201 203 201 203 206 205 207 208 204 203 203 205 208 216 221 220 223 228 229 230 224 211 216 225 221 215 216 217 219 220 227 236 245 262 284 296 295 287 286 286 282 283 287 289 291 297 302 306
195 193 189 189 189 189 189 189 189 190 192 197 200 201 203 204 207 209 206 199 196 196 196 196 197 197 197 200 199 197 200 202 201 202 204 204 204 206 209 207 206 206 204 208 210 205 203 201 201 209 219 226 223 220 222 227 234 234 222 220 234 234 227 221 219 219 216 216 227 246 263 291 300 293 293 301 292 277 283 290 295 301 305 307 314
197 196 193 191 191 190 190 190 191 192 194 198 201 202 203 206 208 210 208 202 196 195 196 197 198 199 199 202 201 197 198 203 204 204 201 201 202 203 205 205 205 205 204 207 208 202 203 204 204 212 220 224 221 217 220 228 232 230 224 227 240 243 242 235 225 221 217 213 222 246 259 283 294 285 289 305 301 285 286 295 305 311 313 319 329
201 198 195 193 192 191 191 190 191 193 195 199 202 204 205 206 209 210 209 205 199 195 196 198 199 200 200 201 202 199 200 203 202 201 198 196 198 200 200 199 202 206 205 205 207 204 203 206 207 210 217 220 217 218 223 227 230 232 229 231 238 241 245 244 238 231 223 218 220 237 255 275 282 280 287 299 300 294 294 303 314 316 316 322 327
205 202 198 195 193 192 191 191 192 195 198 201 203 205 206 207 210 213 211 208 203 199 199 200 200 201 201 201 202 202 202 202 201 200 198 196 196 198 199 197 198 201 204 207 212 211 209 212 214 213 217 217 212 217 224 222 227 235 232 232 236 240 244 245 245 241 230 225 224 231 248 262 266 273 284 291 293 290 292 306 316 315 318 321 321
206 205 200 195 194 194 193 191 192 196 200 202 204 205 206 208 212 216 213 208 204 201 200 202 202 202 203 203 203 202 201 201 199 196 198 199 197 195 196 198 200 199 203 215 221 219 220 219 218 216 217 221 217 219 226 223 224 229 229 230 236 242 245 243 245 241 227 226 228 234 243 252 260 269 279 283 283 276 277 300 310 307 310 315 318
205 205 201 196 195 195 195 193 193 197 200 202 204 204 204 207 211 213 210 206 205 202 200 203 203 202 202 203 203 201 198 199 199 198 200 201 198 197 196 198 206 207 209 220 221 217 219 219 220 219 217 223 224 224 231 233 228 229 231 230 233 242 245 242 243 242 232 229 232 236 243 254 264 269 274 278 279 273 270 286 299 299 300 302 311
204 204 201 197 195 195 195 195 195 198 200 201 202 204 204 207 210 211 208 206 205 202 201 203 204 202 202 203 203 201 198 200 200 201 204 204 201 202 201 201 208 212 211 216 215 212 214 214 217 222 221 225 229 229 237 241 235 232 235 237 239 246 248 246 245 245 242 236 235 238 243 254 263 268 270 271 272 272 270 273 282 292 295 294 298
204 202 199 198 195 194 194 195 195 197 199 199 201 202 204 206 208 210 209 208 207 204 201 202 203 202 202 203 205 202 200 200 201 203 206 208 210 210 209 207 205 203 203 210 215 216 217 216 219 224 223 222 226 234 240 244 242 238 240 245 248 248 246 245 243 243 245 245 244 247 251 256 263 267 264 262 264 266 265 269 275 281 283 282 284
206 204 202 201 198 195 195 195 194 196 197 197 199 201 203 206 206 207 208 208 208 207 203 201 202 203 202 202 204 204 203 201 200 201 201 205 212 214 212 209 202 200 208 216 222 225 225 228 229 227 223 221 228 247 252 250 248 244 244 246 250 253 251 242 241 248 257 253 249 254 259 262 267 266 255 252 262 266 265 268 270 273 278 279 282
209 207 203 201 197 196 196 195 194 195 197 198 199 201 202 204 204 206 208 208 208 208 206 203 202 202 203 202 202 204 206 204 201 199 198 202 211 215 212 210 208 211 220 223 225 230 231 234 232 230 238 242 244 255 262 261 256 250 249 249 251 257 255 246 245 257 264 255 246 251 259 262 259 250 243 249 261 270 274 274 271 274 286 292 290
206 209 207 203 199 197 194 194 193 193 195 198 200 202 202 203 205 206 208 209 209 208 207 205 202 202 205 204 202 204 208 209 207 204 202 206 212 213 211 213 216 220 225 226 226 232 235 236 235 237 247 255 257 259 261 263 261 256 256 254 249 253 258 257 256 257 257 255 251 252 254 256 255 247 245 253 256 257 267 279 282 285 292 294 290
197 202 202 199 198 197 190 188 190 192 196 199 201 202 201 202 204 204 205 208 209 208 206 202 199 200 206 207 206 210 213 212 211 209 208 209 211 210 210 216 223 226 229 231 229 232 235 237 243 248 250 254 259 261 261 263 263 261 260 255 246 247 256 261 256 249 248 252 254 257 257 259 266 264 260 263 262 255 255 267 278 284 285 285 289
192 197 199 196 196 199 193 184 184 187 191 196 199 200 200 200 201 201 203 204 203 204 201 197 195 198 205 207 208 214 217 214 212 210 209 210 211 212 214 222 229 231 233 234 232 233 236 240 246 251 252 255 257 259 260 259 258 259 258 254 247 245 252 258 254 250 254 259 259 261 260 259 264 269 267 263 258 255 252 257 269 271 272 283 298
187 193 198 199 198 200 198 196 192 183 180 182 185 188 190 193 194 195 196 197 198 199 198 198 201 204 204 203 205 212 217 216 213 211 208 207 211 218 223 228 233 234 234 234 232 232 237 242 247 251 255 256 255 253 254 255 254 253 252 250 248 247 252 260 260 260 267 268 263 263 261 259 261 267 269 261 250 247 246 249 256 256 264 281 293
185 189 192 194 196 195 193 195 198 194 187 184 179 173 171 179 185 186 188 192 195 198 201 205 209 208 204 204 206 210 213 216 217 216 213 210 214 223 228 229 231 234 235 235 233 233 236 241 244 247 250 251 249 247 249 254 255 252 250 250 250 249 253 262 267 269 272 270 268 268 265 263 266 271 273 265 252 249 249 247 246 249 263 276 279
184 189 190 189 189 189 188 189 192 194 196 200 200 194 186 182 184 186 191 194 194 195 198 202 206 207 206 207 207 207 213 218 220 222 220 214 215 222 228 229 229 229 229 231 233 235 237 238 238 239 241 243 246 246 248 252 253 252 251 248 247 248 249 257 263 266 270 271 271 272 269 268 271 273 271 266 258 257 257 254 250 248 256 266 272
174 181 184 184 183 184 185 188 193 195 199 204 207 207 208 205 197 198 205 206 203 202 197 195 200 205 207 210 209 211 217 221 221 222 221 216 216 221 225 228 230 231 231 229 230 232 235 239 241 242 241 241 243 247 251 254 253 253 251 242 238 239 238 246 256 259 263 270 270 270 271 269 268 267 265 264 264 267 265 260 255 251 253 261 271
154 161 167 172 177 179 181 185 189 192 197 204 208 207 209 209 204 203 209 210 209 212 213 208 208 210 210 213 217 219 221 222 221 221 220 219 221 225 228 230 231 234 236 235 234 232 232 235 239 241 242 240 241 246 251 255 253 252 250 241 234 234 232 237 248 254 262 272 273 272 273 272 272 271 270 268 267 268 267 259 251 249 253 259 267
143 145 147 154 165 173 178 182 183 183 188 197 202 199 198 200 200 201 206 209 208 209 211 211 212 214 213 215 222 225 224 224 224 224 223 223 224 227 231 235 235 235 237 238 239 239 238 239 239 239 241 241 243 247 250 253 253 252 251 245 238 237 235 236 243 251 260 269 271 270 271 274 276 275 275 277 274 270 267 257 247 244 249 256 264
140 140 143 148 154 159 166 173 177 177 179 186 192 192 190 192 196 197 198 202 205 206 210 213 215 218 220 222 227 230 229 228 229 229 228 228 228 229 231 235 237 238 240 241 242 243 244 246 246 246 247 247 248 251 251 251 251 252 253 249 243 239 237 238 245 250 257 264 269 271 274 276 276 274 273 277 278 276 269 257 246 242 246 254 261
131 131 135 138 138 138 141 151 159 165 168 170 173 180 184 185 190 197 196 197 202 207 214 220 220 222 226 230 232 232 230 230 231 231 232 233 234 235 236 238 241 242 243 245 247 249 250 251 252 252 252 252 252 252 252 252 254 254 252 250 248 244 240 240 244 248 254 262 267 271 275 278 278 275 273 274 277 276 270 257 246 243 247 253 259
130 128 121 115 114 119 125 132 142 154 167 165 150 155 180 188 196 208 209 208 212 216 221 226 226 224 224 225 227 227 226 228 230 232 236 239 239 240 242 244 245 245 245 246 249 251 253 255 255 255 255 254 253 251 250 253 256 257 254 252 252 250 244 241 242 246 252 258 263 268 274 278 277 275 272 272 273 272 265 256 250 251 255 258 260
131 129 124 117 115 123 132 142 157 169 182 182 160 151 165 175 185 196 201 203 210 215 219 223 226 227 227 227 229 230 230 231 232 235 239 242 244 244 245 247 249 249 249 250 251 252 253 254 256 257 257 256 254 252 250 250 252 254 255 253 249 247 245 242 242 245 250 256 262 267 272 275 275 273 271 270 268 267 262 256 255 257 259 261 265
129 129 130 129 130 135 137 147 167 177 183 184 172 158 158 166 174 183 191 197 204 210 214 219 223 228 231 234 236 238 238 237 238 238 239 242 244 244 246 248 249 250 251 252 252 252 253 255 257 259 259 258 257 256 253 250 250 249 250 250 246 243 244 245 245 247 250 255 262 267 269 271 271 270 268 265 263 261 259 256 255 256 258 262 268
125 128 130 127 127 130 131 138 154 164 167 171 175 173 172 173 172 175 189 199 205 214 221 224 227 230 233 236 239 242 243 242 242 243 244 245 246 247 248 249 250 252 253 253 254 255 256 257 258 257 257 256 257 258 255 253 252 249 247 248 247 243 243 244 246 247 249 253 260 264 265 265 265 264 263 261 260 259 258 257 258 259 262 266 269
122 124 127 124 119 118 115 110 109 112 116 125 141 147 152 156 153 156 174 186 193 206 211 212 219 224 229 237 240 243 246 246 246 247 246 245 246 247 248 249 251 255 258 262 265 262 256 255 255 254 254 254 255 256 254 252 251 248 245 244 243 241 240 239 240 242 245 250 256 260 261 261 262 263 263 262 261 260 260 260 262 264 267 269 270
117 120 125 125 118 112 109 102 98 101 104 109 120 135 146 156 160 157 156 154 154 156 155 153 157 163 175 198 216 228 237 236 235 235 234 235 238 242 244 246 251 257 266 275 281 256 227 235 241 245 250 252 251 249 245 242 241 241 240 238 236 234 232 231 232 235 239 244 249 253 255 256 259 262 266 267 267 266 265 264 266 269 270 270 272
118 119 124 127 124 122 125 126 125 127 129 132 145 163 164 162 161 153 142 136 134 133 136 141 145 151 160 169 181 198 213 215 213 211 214 221 230 236 235 229 223 213 200 242 250 143 187 217 229 237 247 253 250 244 238 234 232 231 231 230 230 229 224 221 223 226 229 235 244 250 251 253 260 266 271 273 275 275 271 266 265 267 269 269 271
123 123 126 129 126 125 125 125 124 122 118 117 127 140 144 143 142 137 130 125 123 125 133 141 147 152 151 148 149 161 184 194 186 174 193 227 241 189 190 183 173 160 146 136 124 118 144 173 189 204 222 242 247 242 237 233 230 229 228 225 226 228 224 220 221 222 223 231 243 248 249 254 264 271 271 269 267 266 263 258 255 257 260 263 266
124 123 119 115 112 113 113 113 115 115 111 107 110 118 123 126 126 123 120 117 115 117 121 127 135 142 142 142 144 149 164 181 175 157 155 145 115 131 154 162 162 159 155 147 140 138 126 108 105 113 124 137 179 213 223 221 218 222 224 213 210 217 219 218 218 219 222 230 237 240 243 252 261 265 262 258 257 257 255 251 250 251 254 258 260
124 122 115 105 101 105 115 119 120 121 119 117 118 122 123 122 119 118 119 120 120 122 124 126 133 139 140 140 144 149 159 173 176 170 164 149 138 149 162 167 165 165 166 163 161 171 167 119 100 93 89 91 97 114 150 167 161 156 165 169 179 196 209 214 216 217 222 226 226 227 235 245 254 264 269 267 263 259 253 246 245 245 244 240 232
133 133 131 121 113 117 124 127 128 128 128 124 123 125 126 123 121 120 120 119 118 121 128 133 135 135 136 138 143 149 157 166 173 177 173 161 156 165 174 177 174 173 177 177 180 194 197 159 127 108 92 91 99 120 155 167 155 131 136 151 165 191 211 222 224 224 227 225 222 226 240 258 274 284 284 270 249 233 227 226 222 212 199 187 181
139 141 142 137 134 132 128 125 126 127 128 128 128 130 130 126 124 121 117 113 109 109 118 128 130 130 135 141 144 146 149 153 161 174 180 181 189 193 196 198 195 188 183 175 182 202 211 182 149 130 83 80 98 173 211 213 224 243 244 227 217 216 225 234 238 242 245 243 242 245 249 263 282 283 270 232 200 191 192 194 187 179 179 185 195
138 133 126 118 120 129 125 116 117 126 131 135 136 135 133 130 127 125 122 119 117 114 116 125 132 136 143 146 140 139 147 153 162 170 179 189 191 190 199 212 219 220 221 215 200 202 214 224 230 252 334 4 338 288 269 250 247 255 262 261 262 264 258 248 246 251 254 255 255 251 240 226 230 244 233 208 198 200 199 196 194 195 203 213 221
150 138 123 101 92 109 118 113 112 121 128 133 132 131 131 132 134 139 142 145 143 135 132 139 145 147 143 127 133 193 238 217 204 218 251 252 233 213 211 211 216 225 233 239 238 228 224 231 242 250 264 273 273 285 291 278 265 266 271 271 265 266 263 250 240 241 249 253 252 247 235 216 202 203 201 189 187 194 196 197 200 204 205 208 209
163 158 154 117 71 82 109 115 115 118 124 132 133 129 130 131 138 156 171 180 174 148 145 155 163 171 183 296 284 285 292 280 268 280 292 288 283 277 266 248 231 234 239 242 247 248 244 242 244 250 259 268 272 277 283 282 274 272 277 279 275 275 284 269 245 232 235 235 220 201 194 193 191 192 190 181 176 180 185 189 191 190 191 194 196
166 171 182 200 218 133 135 131 124 120 127 136 135 130 132 135 144 166 185 198 210 201 195 218 241 238 240 259 273 281 287 283 274 269 269 271 275 273 270 268 260 254 250 242 239 242 246 250 254 258 265 272 276 277 278 276 271 269 273 278 281 288 298 284 251 218 192 189 184 178 179 182 186 190 191 189 191 193 193 194 198 201 206 210 213
Height
1558 1560 1562 1563 1565 1566 1568 1569 1570 1572 1574 1576 1577 1578 1580 1581 1583 1584 1586 1587 1588 1589 1590 1591 1592 1592 1593 1594 1594 1595 1596 1597 1597 1598 1599 1599 1600 1600 1600 1600 1601 1601 1601 1602 1602 1602 1602 1603 1603 1603 1603 1603 1603 1604 1604 1604 1604 1604 1604 1604 1605 1605 1605 1605 1606 1606 1606 1606 1606 1606 1607 1607 1607 1607 1607 1606 1606 1606 1606 1605 1605 1604 1604 1604 1604
1558 1560 1562 1563 1565 1566 1568 1569 1570 1571 1573 1575 1576 1578 1579 1581 1582 1584 1585 1587 1588 1589 1590 1591 1592 1592 1593 1594 1595 1595 1596 1597 1597 1598 1599 1599 1600 1600 1600 1600 1601 1601 1602 1602 1602 1602 1603 1603 1603 1603 1603 1603 1604 1604 1604 1604 1604 1604 1604 1605 1605 1605 1605 1605 1606 1606 1607 1607 1607 1607 1607 1607 1607 1607 1607 1606 1606 1606 1606 1605 1605 1605 1604 1604 1604
1557 1559 1562 1563 1564 1566 1567 1569 1570 1571 1572 1574 1576 1577 1579 1580 1582 1583 1585 1586 1588 1589 1590 1591 1592 1592 1593 1594 1595 1596 1596 1597 1598 1598 1599 1599 1600 1600 1600 1601 1601 1601 1602 1602 1602 1602 1603 1603 1603 1603 1603 1603 1604 1604 1604 1604 1604 1605 1605 1605 1605 1605 1605 1605 1606 1606 1607 1607 1607 1607 1607 1607 1607 1607 1607 1607 1606 1606 1606 1606 1605 1605 1605 1604 1604
1556 1558 1560 1562 1564 1565 1567 1569 1570 1572 1573 1574 1575 1577 1578 1579 1581 1583 1584 1586 1587 1589 1590 1591 1591 1592 1593 1594 1595 1596 1597 1597 1598 1598 1599 1599 1599 1600 1600 1601 1601 1601 1602 1602 1602 1603 1603 1603 1603 1603 1604 1604 1604 1604 1604 1604 1605 1605 1605 1605 1605 1605 1606 1606 1606 1606 1607 1607 1607 1608 1608 1607 1607 1607 1607 1607 1607 1606 1606 1606 1606 1605 1605 1605 1604
1555 1557 1559 1561 1562 1564 1566 1568 1570 1571 1572 1573 1574 1576 1577 1579 1581 1582 1584 1585 1587 1588 1589 1590 1591 1592 1593 1594 1595 1596 1596 1597 1597 1597 1598 1599 1599 1600 1600 1601 1601 1602 1602 1602 1603 1603 1603 1603 1603 1604 1604 1604 1604 1604 1604 1604 1605 1605 1605 1605 1606 1606 1606 1606 1606 1606 1607 1607 1607 1608 1608 1608 1607 1608 1608 1607 1607 1607 1606 1606 1606 1606 1605 1605 1605
1554 1556 1558 1560 1561 1563 1566 1567 1569 1570 1572 1573 1574 1575 1577 1579 1581 1582 1583 1584 1586 1587 1589 1590 1590 1591 1592 1593 1594 1594 1595 1596 1596 1597 1597 1598 1599 1599 1600 1601 1601 1601 1602 1602 1603 1603 1603 1603 1603 1603 1604 1604 1604 1604 1604 1604 1605 1605 1605 1606 1606 1606 1606 1606 1606 1607 1607 1607 1607 1607 1607 1607 1607 1607 1607 1607 1607 1607 1607 1607 1606 1606 1606 1605 1605
1553 1555 1557 1559 1560 1562 1564 1566 1568 1569 1571 1573 1574 1575 1577 1579 1580 1581 1582 1584 1585 1587 1588 1589 1590 1590 1591 1592 1593 1594 1594 1595 1595 1596 1597 1598 1598 1599 1600 1600 1601 1601 1602 1602 1602 1602 1603 1603 1603 1603 1603 1604 1604 1604 1604 1604 1605 1605 1606 1606 1606 1606 1606 1606 1606 1606 1606 1607 1607 1607 1607 1607 1607 1607 1607 1607 1607 1607 1607 1607 1607 1606 1606 1605 1605
1551 1553 1556 1558 1559 1560 1562 1565 1567 1568 1570 1572 1574 1575 1576 1578 1579 1581 1582 1583 1584 1586 1587 1588 1589 1590 1591 1592 1593 1594 1594 1595 1595 1596 1596 1597 1598 1598 1599 1600 1600 1601 1601 1602 1602 1602 1602 1603 1603 1603 1603 1604 1604 1604 1604 1604 1605 1605 1605 1605 1606 1606 1606 1606 1606 1606 1606 1606 1606 1607 1607 1607 1607 1607 1607 1607 1607 1607 1607 1607 1606 1606 1606 1605 1605
1549 1551 1553 1556 1558 1559 1561 1563 1566 1568 1569 1571 1572 1574 1576 1577 1579 1580 1581 1583 1584 1585 1586 1588 1589 1590 1591 1591 1593 1594 1594 1595 1595 1595 1596 1596 1597 1598 1598 1599 1600 1600 1601 1601 1601 1602 1602 1603 1603 1603 1603 1603 1604 1604 1604 1604 1604 1605 1605 1605 1605 1606 1606 1606 1606 1606 1606 1606 1606 1607 1607 1607 1607 1607 1607 1607 1607 1607 1607 1606 1606 1606 1606 1605 1605
1547 1549 1551 1554 1556 1558 1560 1562 1564 1566 1568 1570 1571 1573 1575 1576 1578 1579 1580 1581 1583 1585 1586 1587 1588 1589 1590 1591 1592 1593 1594 1595 1595 1595 1596 1596 1597 1597 1598 1598 1599 1600 1600 1601 1601 1601 1602 1602 1603 1603 1603 1603 1603 1603 1604 1604 1604 1604 1605 1605 1605 1605 1606 1606 1606 1606 1606 1606 1606 1606 1607 1607 1607 1607 1607 1607 1607 1607 1606 1606 1606 1605 1605 1605 1605
1545 1547 1549 1552 1555 1556 1559 1560 1562 1565 1567 1568 1570 1571 1573 1575 1576 1578 1579 1580 1582 1584 1585 1586 1588 1588 1590 1590 1591 1593 1593 1594 1595 1595 1595 1596 1596 1597 1598 1598 1598 1599 1600 1600 1601 1601 1601 1602 1602 1603 1603 1603 1603 1603 1604 1604 1604 1604 1604 1605 1605 1605 1606 1606 1606 1606 1606 1606 1606 1606 1606 1606 1606 1606 1607 1606 1606 1606 1606 1606 1606 1605 1605 1604 1604
1544 1546 1547 1550 1553 1555 1557 1558 1560 1563 1565 1567 1568 1570 1571 1573 1575 1576 1578 1579 1581 1583 1584 1586 1587 1588 1589 1590 1591 1592 1593 1594 1594 1595 1595 1596 1596 1597 1597 1598 1598 1599 1599 1600 1600 1601 1601 1601 1602 1602 1603 1603 1603 1603 1603 1603 1604 1604 1604 1604 1604 1605 1605 1606 1606 1606 1606 1606 1606 1606 1606 1606 1606 1606 1606 1606 1606 1606 1605 1605 1605 1605 1604 1604 1604
1543 1544 1545 1548 1551 1553 1555 1557 1559 1561 1563 1565 1566 1568 1570 1571 1574 1575 1576 1578 1580 1581 1583 1584 1586 1587 1589 1590 1590 1591 1592 1593 1594 1595 1595 1596 1596 1597 1597 1598 1598 1598 1599 1599 1600 1600 1601 1601 1601 1602 1602 1602 1603 1603 1603 1603 1603 1603 1603 1604 1604 1604 1605 1605 1605 1605 1605 1605 1605 1606 1606 1606 1606 1606 1606 1605 1605 1605 1605 1605 1604 1604 1603 1603 1603
1541 1542 1543 1545 1548 1550 1553 1555 1557 1559 1561 1563 1565 1567 1569 1570 1572 1574 1575 1577 1579 1580 1582 1583 1585 1586 1588 1589 1590 1591 1592 1593 1594 1594 1595 1596 1596 1597 1597 1598 1598 1598 1599 1599 1600 1600 1600 1601 1601 1601 1602 1602 1602 1602 1602 1603 1603 1603 1603 1603 1604 1604 1604 1604 1605 1605 1605 1605 1605 1605 1605 1606 1606 1606 1605 1605 1605 1605 1604 1604 1604 1603 1603 1602 1602
1539 1540 1541 1543 1545 1548 1551 1553 1555 1557 1559 1561 1563 1565 1567 1569 1571 1572 1574 1576 1577 1579 1581 1582 1584 1585 1587 1588 1590 1591 1591 1592 1593 1594 1595 1595 1596 1596 1597 1597 1598 1598 1599 1599 1599 1600 1600 1600 1600 1601 1601 1601 1602 1602 1602 1602 1602 1603 1603 1603 1603 1604 1604 1604 1604 1604 1605 1605 1605 1605 1605 1605 1606 1605 1605 1605 1605 1604 1604 1604 1603 1603 1602 1602 1601
1537 1538 1539 1541 1544 1546 1549 1551 1553 1555 1557 1559 1561 1563 1565 1567 1569 1571 1573 1575 1576 1578 1580 1582 1583 1585 1586 1587 1589 1590 1591 1591 1592 1593 1594 1594 1595 1596 1596 1597 1597 1598 1598 1599 1599 1600 1600 1600 1600 1600 1601 1601 1601 1601 1601 1602 1602 1602 1602 1603 1603 1603 1603 1604 1604 1604 1604 1604 1604 1604 1605 1605 1605 1605 1605 1605 1604 1604 1604 1604 1603 1603 1602 1601 1601
1535 1537 1538 1540 1541 1544 1546 1549 1551 1553 1554 1557 1559 1562 1564 1566 1568 1570 1572 1574 1575 1577 1579 1581 1582 1584 1585 1586 1587 1589 1590 1591 1591 1592 1593 1594 1595 1595 1596 1596 1597 1597 1598 1598 1599 1599 1599 1599 1600 1600 1600 1600 1600 1601 1601 1601 1602 1602 1602 1602 1602 1603 1603 1603 1603 1603 1603 1604 1604 1604 1604 1604 1604 1604 1604 1604 1604 1604 1604 1603 1603 1603 1602 1602 1601
1533 1534 1536 1538 1539 1542 1545 1547 1549 1550 1552 1555 1558 1561 1563 1565 1567 1569 1571 1572 1574 1576 1578 1579 1581 1582 1584 1585 1586 1587 1588 1589 1590 1591 1592 1593 1594 1594 1595 1596 1596 1597 1598 1598 1598 1598 1599 1599 1599 1599 1599 1600 1600 1600 1600 1601 1601 1601 1601 1602 1602 1602 1602 1602 1603 1603 1603 1603 1603 1603 1603 1603 1603 1603 1603 1603 1603 1603 1603 1603 1603 1602 1602 1602 1601
1531 1532 1534 1536 1537 1540 1543 1546 1548 1549 1551 1554 1557 1560 1562 1564 1566 1568 1569 1571 1573 1575 1576 1578 1579 1581 1582 1584 1585 1586 1587 1588 1589 1590 1591 1592 1593 1593 1594 1595 1596 1597 1597 1597 1598 1598 1598 1598 1598 1599 1599 1599 1600 1600 1600 1600 1600 1601 1601 1601 1601 1601 1601 1602 1602 1602 1602 1602 1602 1603 1603 1603 1603 1603 1602 1602 1602 1602 1602 1602 1602 1602 1602 1602 1601
1528 1530 1532 1534 1536 1539 1541 1544 1546 1548 1550 1552 1556 1558 1560 1563 1565 1566 1568 1570 1571 1573 1575 1576 1578 1579 1581 1582 1584 1585 1586 1587 1588 1589 1590 1591 1592 1592 1593 1594 1595 1596 1596 1596 1597 1597 1597 1598 1598 1598 1598 1599 1599 1599 1600 1600 1600 1600 1600 1600 1601 1601 1601 1601 1601 1601 1601 1602 1602 1602 1602 1602 1602 1602 1602 1601 1601 1601 1601 1601 1601 1601 1601 1601 1601
1526 1528 1530 1532 1534 1537 1539 1542 1545 1546 1548 1551 1553 1556 1559 1561 1563 1565 1566 1568 1569 1571 1573 1574 1576 1578 1579 1581 1582 1583 1585 1586 1587 1588 1589 1590 1590 1591 1592 1593 1594 1595 1595 1595 1596 1596 1597 1597 1597 1597 1598 1598 1599 1599 1599 1599 1599 1599 1599 1600 1600 1600 1600 1600 1600 1600 1601 1601 1601 1601 1601 1601 1601 1601 1601 1600 1600 1600 1600 1600 1600 1600 1600 1600 1600
1526 1528 1530 1531 1532 1534 1537 1540 1542 1544 1546 1548 1551 1554 1556 1559 1561 1563 1565 1566 1568 1569 1571 1573 1574 1576 1578 1579 1581 1582 1583 1585 1586 1587 1588 1588 1589 1590 1591 1592 1593 1593 1594 1594 1595 1596 1596 1596 1596 1597 1597 1598 1598 1598 1598 1598 1598 1599 1599 1599 1599 1599 1599 1599 1599 1600 1600 1600 1600 1600 1600 1601 1600 1600 1600 1600 1600 1599 1599 1599 1599 1599 1599 1599 1599
1528 1528 1529 1530 1531 1533 1535 1537 1539 1542 1544 1547 1549 1552 1554 1557 1559 1561 1562 1564 1566 1567 1569 1571 1572 1574 1576 1578 1580 1581 1582 1584 1584 1586 1587 1587 1588 1589 1590 1591 1592 1592 1593 1593 1594 1595 1595 1595 1596 1596 1597 1597 1598 1598 1598 1598 1598 1598 1598 1598 1598 1598 1599 1599 1599 1599 1599 1599 1599 1599 1599 1599 1599 1599 1599 1599 1599 1599 1599 1599 1598 1598 1598 1598 1598
1526 1528 1529 1530 1530 1532 1534 1536 1538 1540 1543 1545 1547 1549 1552 1555 1557 1559 1560 1562 1563 1565 1567 1569 1571 1573 1575 1577 1578 1580 1581 1583 1584 1585 1586 1587 1588 1589 1590 1590 1591 1591 1592 1592 1593 1594 1594 1594 1595 1595 1596 1596 1596 1597 1597 1597 1597 1597 1597 1597 1597 1598 1598 1598 1598 1598 1598 1598 1598 1597 1598 1598 1598 1598 1598 1598 1598 1598 1598 1598 1598 1597 1597 1597 1597
1523 1525 1529 1532 1533 1533 1534 1535 1537 1539 1541 1543 1545 1548 1550 1552 1554 1556 1558 1560 1561 1563 1565 1567 1570 1572 1574 1575 1577 1579 1580 1581 1583 1584 1585 1586 1587 1588 1589 1590 1590 1590 1591 1591 1592 1592 1593 1593 1594 1594 1594 1595 1595 1595 1596 1596 1596 1596 1596 1596 1596 1597 1597 1597 1597 1597 1597 1596 1596 1596 1596 1596 1597 1597 1597 1596 1597 1597 1597 1597 1597 1597 1597 1597 1597
1522 1523 1527 1532 1536 1537 1535 1535 1537 1538 1540 1542 1544 1546 1548 1550 1553 1554 1556 1558 1560 1561 1563 1566 1568 1571 1573 1575 1576 1578 1579 1580 1582 1583 1584 1585 1586 1587 1588 1589 1590 1590 1590 1590 1591 1591 1592 1592 1592 1593 1593 1593 1594 1594 1594 1594 1595 1595 1595 1595 1595 1595 1596 1596 1596 1596 1595 1595 1595 1595 1595 1595 1596 1596 1596 1596 1596 1596 1595 1596 1596 1596 1596 1596 1596
1519 1521 1523 1526 1530 1535 1538 1538 1538 1538 1540 1542 1545 1547 1548 1550 1553 1554 1556 1557 1558 1560 1563 1565 1568 1570 1572 1574 1575 1577 1578 1580 1581 1582 1583 1584 1585 1586 1587 1587 1588 1588 1589 1589 1589 1590 1590 1591 1591 1591 1592 1592 1592 1593 1593 1593 1593 1593 1593 1594 1594 1594 1594 1594 1594 1595 1595 1595 1595 1594 1594 1594 1594 1594 1594 1595 1595 1595 1594 1594 1594 1594 1595 1595 1595
1515 1517 1520 1521 1524 1529 1535 1539 1539 1539 1540 1541 1542 1544 1546 1548 1550 1552 1554 1555 1556 1559 1562 1565 1567 1569 1571 1573 1574 1576 1577 1578 1580 1580 1582 1583 1584 1585 1585 1586 1586 1586 1587 1588 1588 1588 1589 1589 1590 1590 1591 1591 1591 1591 1591 1591 1591 1592 1592 1592 1592 1593 1593 1593 1593 1593 1594 1594 1594 1593 1593 1593 1593 1593 1593 1594 1594 1594 1593 1593 1593 1593 1594 1594 1593
1513 1515 1518 1520 1522 1524 1528 1534 1537 1540 1541 1541 1541 1542 1544 1546 1548 1550 1553 1556 1559 1561 1563 1564 1566 1567 1570 1572 1573 1575 1576 1577 1578 1579 1580 1581 1582 1583 1583 1584 1585 1585 1585 1586 1586 1587 1587 1588 1589 1589 1590 1590 1589 1590 1590 1590 1590 1590 1590 1591 1591 1591 1592 1591 1591 1592 1592 1592 1592 1592 1592 1592 1592 1592 1592 1592 1592 1592 1592 1592 1592 1592 1592 1592 1592
1513 1515 1517 1520 1523 1524 1526 1529 1533 1536 1539 1542 1544 1546 1548 1549 1551 1554 1557 1560 1563 1564 1563 1563 1565 1567 1570 1571 1572 1574 1575 1576 1577 1578 1579 1580 1581 1582 1582 1583 1583 1584 1584 1584 1584 1585 1586 1586 1587 1587 1588 1588 1588 1589 1589 1589 1589 1589 1589 1589 1589 1590 1590 1590 1590 1590 1591 1591 1590 1590 1590 1590 1590 1590 1590 1590 1590 1591 1590 1591 1591 1591 1591 1591 1590
1515 1517 1519 1521 1523 1525 1526 1528 1531 1534 1536 1540 1543 1546 1548 1550 1552 1555 1557 1559 1562 1563 1564 1566 1567 1568 1570 1571 1572 1573 1574 1575 1576 1576 1577 1578 1579 1580 1580 1581 1581 1582 1583 1583 1583 1583 1584 1585 1585 1585 1586 1586 1587 1587 1587 1588 1588 1588 1588 1588 1588 1588 1589 1588 1588 1588 1589 1589 1589 1589 1589 1589 1589 1589 1589 1589 1589 1589 1589 1589 1589 1589 1589 1589 1589
1519 1519 1521 1523 1524 1526 1527 1528 1530 1533 1536 1538 1541 1544 1546 1548 1550 1553 1554 1556 1558 1561 1564 1567 1568 1569 1570 1570 1571 1572 1573 1574 1574 1575 1576 1576 1577 1578 1578 1579 1579 1580 1581 1581 1582 1582 1582 1583 1583 1583 1584 1584 1585 1585 1585 1586 1586 1586 1586 1586 1586 1587 1587 1587 1586 1586 1587 1587 1587 1588 1588 1588 1588 1588 1588 1587 1587 1587 1587 1587 1587 1587 1587 1587 1587
1521 1521 1522 1524 1525 1526 1527 1528 1529 1532 1534 1537 1539 1541 1543 1545 1547 1550 1552 1554 1557 1559 1563 1565 1567 1568 1568 1568 1570 1571 1572 1573 1573 1573 1574 1574 1575 1576 1576 1577 1577 1578 1579 1579 1580 1580 1580 1581 1581 1581 1582 1582 1583 1583 1583 1583 1584 1584 1584 1585 1585 1585 1585 1585 1585 1585 1585 1585 1586 1586 1586 1586 1586 1586 1586 1586 1586 1586 1585 1585 1585 1586 1586 1586 1586
1522 1522 1523 1524 1526 1527 1528 1529 1530 1532 1534 1536 1538 1541 1542 1543 1546 1548 1551 1553 1556 1558 1560 1563 1565 1565 1565 1566 1568 1569 1570 1571 1571 1571 1572 1572 1573 1573 1573 1574 1575 1576 1576 1577 1577 1577 1578 1578 1578 1579 1579 1580 1580 1580 1580 1581 1581 1582 1582 1582 1582 1583 1583 1583 1583 1583 1583 1584 1584 1584 1584 1584 1584 1584 1584 1584 1584 1584 1584 1584 1584 1584 1584 1584 1584
1524 1525 1525 1526 1528 1530 1531 1532 1532 1533 1534 1535 1537 1539 1542 1543 1546 1548 1551 1553 1556 1557 1559 1561 1563 1563 1563 1564 1566 1567 1568 1568 1568 1569 1569 1569 1570 1570 1571 1572 1572 1573 1574 1574 1575 1575 1575 1575 1575 1576 1577 1577 1578 1578 1578 1578 1579 1579 1580 1580 1580 1581 1581 1581 1581 1582 1582 1582 1582 1582 1582 1582 1582 1582 1582 1582 1582 1582 1582 1582 1582 1582 1583 1582 1582
1525 1527 1528 1529 1531 1533 1534 1535 1535 1535 1536 1536 1537 1540 1542 1545 1547 1549 1551 1553 1555 1556 1558 1560 1561 1561 1562 1562 1564 1565 1565 1566 1566 1566 1566 1566 1566 1567 1568 1569 1569 1571 1572 1572 1572 1573 1573 1573 1573 1573 1574 1574 1575 1575 1576 1576 1576 1577 1577 1578 1578 1578 1578 1578 1579 1579 1579 1580 1580 1580 1580 1580 1580 1580 1580 1580 1580 1580 1580 1580 1580 1581 1581 1580 1580
1526 1528 1529 1530 1533 1534 1535 1536 1536 1537 1538 1538 1539 1541 1543 1545 1547 1548 1550 1551 1553 1554 1556 1558 1559 1560 1560 1561 1561 1562 1562 1563 1563 1564 1564 1564 1564 1565 1566 1566 1566 1567 1568 1568 1569 1570 1570 1570 1570 1570 1571 1571 1571 1571 1572 1573 1574 1574 1575 1575 1575 1576 1576 1576 1576 1576 1577 1577 1577 1578 1578 1578 1577 1577 1578 1578 1578 1578 1578 1578 1579 1579 1579 1578 1578
1528 1530 1530 1530 1531 1532 1533 1534 1535 1537 1538 1539 1541 1543 1545 1546 1547 1548 1549 1550 1551 1553 1554 1556 1557 1558 1558 1559 1559 1559 1559 1560 1561 1561 1562 1562 1562 1562 1563 1563 1563 1563 1564 1564 1565 1565 1567 1568 1568 1567 1567 1567 1567 1567 1568 1569 1570 1571 1571 1571 1571 1572 1573 1574 1573 1573 1574 1574 1575 1575 1575 1575 1575 1575 1575 1576 1576 1576 1576 1576 1576 1577 1576 1576 1576
1529 1530 1531 1532 1532 1532 1532 1533 1535 1536 1537 1539 1541 1543 1545 1547 1547 1548 1549 1550 1551 1552 1552 1553 1554 1555 1556 1557 1557 1557 1557 1558 1559 1559 1559 1559 1559 1560 1560 1560 1560 1559 1559 1560 1560 1561 1564 1565 1564 1563 1563 1563 1563 1562 1564 1565 1565 1566 1567 1566 1567 1569 1569 1570 1571 1571 1571 1571 1571 1572 1572 1572 1573 1573 1573 1573 1573 1573 1574 1574 1574 1574 1574 1574 1574
1532 1531 1533 1534 1534 1533 1533 1534 1536 1538 1539 1540 1541 1543 1545 1546 1547 1548 1549 1549 1550 1550 1551 1552 1553 1554 1555 1555 1556 1556 1556 1556 1557 1557 1557 1557 1557 1557 1557 1557 1556 1556 1556 1556 1557 1558 1561 1561 1560 1559 1559 1560 1559 1559 1559 1560 1560 1561 1562 1562 1563 1564 1565 1566 1567 1567 1568 1568 1568 1569 1569 1569 1570 1570 1570 1570 1571 1571 1571 1571 1571 1571 1571 1571 1571
1534 1534 1535 1536 1535 1534 1535 1536 1538 1539 1541 1542 1543 1544 1545 1546 1547 1548 1548 1549 1550 1551 1552 1553 1554 1554 1555 1555 1555 1555 1555 1555 1556 1556 1556 1556 1556 1556 1556 1555 1555 1554 1554 1555 1555 1557 1558 1558 1557 1556 1556 1556 1556 1556 1556 1556 1556 1557 1557 1557 1558 1559 1560 1561 1562 1563 1564 1564 1565 1566 1566 1566 1567 1567 1567 1567 1568 1568 1569 1569 1569 1569 1569 1569 1568
1536 1537 1538 1537 1537 1537 1537 1539 1540 1541 1543 1543 1544 1545 1546 1547 1548 1549 1549 1550 1551 1552 1553 1554 1554 1554 1555 1555 1555 1555 1555 1556 1556 1556 1556 1556 1556 1556 1556 1555 1554 1554 1554 1554 1555 1556 1557 1556 1555 1555 1555 1555 1555 1555 1555 1555 1555 1554 1554 1554 1554 1555 1557 1557 1558 1558 1559 1560 1561 1563 1563 1563 1564 1564 1565 1565 1566 1566 1566 1567 1567 1567 1566 1566 1566
1537 1539 1539 1539 1540 1540 1541 1542 1543 1544 1545 1546 1546 1547 1547 1548 1549 1550 1550 1551 1552 1553 1554 1554 1555 1555 1555 1555 1556 1556 1556 1557 1557 1557 1557 1557 1557 1556 1556 1555 1554 1554 1554 1555 1556 1556 1557 1556 1556 1555 1555 1555 1555 1555 1555 1555 1554 1553 1552 1552 1552 1553 1554 1555 1556 1556 1555 1556 1558 1560 1560 1561 1561 1562 1563 1563 1564 1564 1564 1564 1564 1564 1564 1564 1564
1539 1541 1541 1542 1543 1543 1543 1544 1545 1546 1547 1548 1549 1549 1549 1550 1551 1551 1552 1552 1553 1554 1554 1555 1555 1555 1556 1556 1557 1557 1558 1558 1558 1558 1558 1558 1557 1557 1557 1556 1556 1555 1555 1555 1555 1556 1557 1557 1557 1556 1556 1556 1556 1556 1555 1554 1553 1552 1552 1551 1552 1553 1554 1555 1556 1555 1555 1555 1556 1557 1558 1559 1559 1560 1561 1562 1562 1562 1562 1562 1562 1562 1562 1562 1562
1542 1543 1543 1544 1545 1545 1546 1547 1547 1548 1549 1550 1551 1551 1551 1552 1552 1552 1553 1553 1554 1555 1555 1555 1556 1556 1557 1557 1558 1558 1558 1558 1559 1559 1559 1558 1558 1558 1558 1558 1557 1557 1557 1556 1556 1556 1557 1558 1558 1557 1557 1556 1556 1556 1556 1555 1554 1553 1552 1551 1552 1552 1553 1554 1555 1555 1554 1554 1555 1556 1557 1557 1558 1559 1559 1559 1560 1559 1559 1560 1560 1560 1560 1560 1560
1544 1545 1545 1546 1546 1547 1548 1548 1548 1549 1550 1551 1552 1552 1553 1553 1553 1553 1554 1554 1555 1555 1556 1556 1557 1557 1557 1558 1558 1558 1559 1559 1559 1559 1559 1559 1559 1559 1559 1559 1558 1558 1558 1557 1557 1556 1556 1557 1558 1558 1558 1557 1557 1557 1557 1556 1555 1554 1553 1553 1552 1552 1552 1553 1553 1554 1554 1554 1555 1556 1556 1556 1556 1557 1557 1557 1557 1557 1557 1557 1557 1558 1558 1558 1559
1546 1546 1547 1548 1548 1548 1549 1549 1550 1550 1551 1551 1552 1553 1553 1554 1554 1554 1555 1555 1556 1556 1557 1557 1557 1557 1557 1558 1558 1558 1559 1559 1559 1559 1560 1560 1560 1559 1559 1559 1559 1559 1559 1558 1558 1557 1557 1557 1558 1558 1558 1558 1558 1558 1558 1557 1556 1555 1554 1554 1553 1552 1552 1552 1552 1552 1553 1554 1555 1555 1555 1555 1555 1555 1556 1556 1555 1556 1556 1556 1556 1557 1557 1557 1558
1547 1548 1548 1549 1549 1549 1550 1550 1551 1551 1552 1553 1553 1554 1554 1555 1555 1555 1556 1556 1557 1557 1557 1557 1557 1557 1557 1557 1558 1558 1559 1559 1559 1559 1560 1560 1560 1559 1559 1559 1559 1559 1559 1559 1559 1558 1558 1558 1558 1558 1558 1558 1558 1559 1558 1557 1557 1556 1555 1554 1553 1553 1552 1552 1552 1552 1552 1553 1554 1553 1553 1553 1554 1555 1555 1555 1555 1555 1555 1555 1555 1556 1556 1556 1557
1548 1548 1549 1550 1550 1551 1552 1552 1553 1553 1553 1554 1554 1555 1556 1556 1556 1557 1557 1557 1557 1557 1557 1557 1557 1557 1557 1557 1557 1558 1558 1558 1559 1559 1559 1559 1559 1559 1559 1559 1559 1559 1559 1559 1559 1558 1558 1558 1558 1558 1558 1557 1558 1558 1557 1556 1555 1555 1554 1554 1553 1553 1552 1552 1552 1551 1552 1552 1552 1552 1551 1552 1554 1555 1555 1555 1554 1554 1554 1554 1554 1555 1555 1555 1555
1548 1549 1550 1551 1552 1553 1553 1554 1554 1554 1555 1555 1556 1556 1556 1557 1557 1558 1558 1558 1558 1557 1557 1557 1557 1557 1557 1557 1557 1557 1557 1558 1558 1558 1558 1558 1558 1558 1558 1558 1558 1558 1558 1558 1558 1558 1557 1557 1557 1557 1556 1556 1556 1556 1556 1555 1554 1553 1553 1552 1552 1552 1552 1551 1551 1550 1550 1550 1551 1551 1550 1551 1553 1554 1554 1554 1554 1553 1553 1553 1553 1554 1554 1554 1554
1549 1550 1551 1552 1553 1554 1554 1555 1555 1556 1556 1557 1557 1557 1558 1558 1558 1558 1558 1558 1558 1558 1557 1557 1557 1557 1557 1557 1557 1557 1557 1557 1557 1557 1557 1557 1557 1557 1557 1557 1557 1557 1556 1556 1556 1556 1556 1556 1556 1555 1555 1555 1554 1554 1553 1553 1552 1551 1551 1550 1550 1550 1550 1550 1550 1549 1549 1549 1550 1550 1550 1550 1551 1552 1553 1553 1553 1553 1552 1552 1552 1553 1553 1553 1553